Terminal Aerodrome Forecast
Issued by NWS New Orleans/Baton Rouge, LA

Home | Current Version | Previous Version | Text Only | Print | Product List | Glossary On
Versions: 1 2 3 4 5 6 7 8 9 10 11 12 13 14 15 16 17 18 19 20 21 22 23
000
FTUS44 KLIX 270524
TAFBTR
TAF
KBTR 270524Z 2706/2806 08005KT P6SM FEW120
     FM271800 10009KT 3SM SHRA BKN025
      TEMPO 2718/2721 VRB25G35KT +TSRA OVC010CB
     FM280000 09008KT 4SM -SHRA OVC015=

USA.gov is the U.S. government's official web portal to all federal, state and local government web resources and services.